METEOR 2-8 DEB

Satellite information

Favourite Embed

Satellite Type and Status

DEBRISIN ORBIT

Key statistics

Satellite METEOR 2-8 DEB at a glance.

Uptime

15970

Days in orbit

Revolutions

≈ 14.3

Per day

Orbit

LEO

Low Earth Orbit

Inclination

82.5

Latest

Satellite identification and parameters

Extended collection of information and parameters for METEOR 2-8 DEB.

Object identification

Identified? True

Debris? True

Object name: METEOR 2-8 DEB

International designator: 1982-025AL

Object number (NORAD): 36350

Object ID (CCSDS): 36350

Country: COMMONWEALTH OF INDEPENDENT STATES (CIS)

Current information (Y/N): Y

RCS size: SMALL

Orbital parameters

Period: 100.402 minutes

Inclination: 82.5199 deg

SMA: 7155.758 km

Apoapsis: 787.81 km

Periapsis: 767.437 km

RAAN: 322.2124 deg

Eccentricy: 0.00142354

Argument of periapsis: 196.974 deg

Mean anomaly: 163.0974 deg

Mean motion: 14.34231607 rev/day

Mean motion (dot): 0.00008509 rev/day2

B* drag term: 0.0030240684 1/REarth

Two-line elements (TLE)

Creation date: Dec. 14, 2025, 3:07 a.m.

Reference frame: TEME

Reference center: EARTH

Epoch: Dec. 13, 2025, 3:42 p.m. UTC

TLE line 0: 0 METEOR 2-8 DEB

TLE line 1: 1 36350U 82025AL 25347.65473941 .00008509 00000-0 30241-2 0 9998

TLE line 2: 2 36350 82.5199 322.2124 0014235 196.9740 163.0974 14.34231607645657

Live tracking on map

Real-time ground track for satellite METEOR 2-8 DEB.

In-orbit conjunctions

A list of the most updated potential collisions computed for object METEOR 2-8 DEB.

Target Orbit TCA Probability of collision Miss distance Type
NOAA 16 DEB SSO 2025-07-13 12:04:17 0.000652116 63.0 (m) DEBRIS
NOAA 16 DEB SSO 2025-02-04 08:29:31 0.0001144348 153.0 (m) DEBRIS
FENGYUN 1C DEB SSO 2024-07-03 23:07:54 0.0001334058 77.0 (m) DEBRIS

Associated space launch

Second generation soviet meteorological satellite

METEOR 2-8 DEB was lifted into orbit during the mission ‘Tsiklon-3 | Meteor-2 8’, on board a Tsiklon-3 space rocket.

The launch took place on March 25, 1982, 9:50 a.m. from 32/1.

For more information about the launch, click the button.

Launch to space Tsiklon-3 | Meteor-2 8
Tsiklon-3 | Meteor-2 8

Agency: N/A

Status: Launch Successful

Launch date: March 25, 1982, 9:50 a.m. UTC

Rocket: Tsiklon-3

Launch pad: 32/1

Location: Plesetsk Cosmodrome, Russian Federation

...

Latest news about this satellite

There are no fresh news available about this satellite. Check back as we update our databases every day.


Newsletter sign-up

Weekly statistics, charts and insights to help you stay on top of the space industry.